Location: Peebles
(55.6412°N, 3.1714°W)
Time: 20:20:05
(UTC+01:00)

deb Kosmos-2123 - Pass Details

Date: 12 July 2022
Orbit: 942 x 985 km, 82.9° (Epoch: 17 August)

Event Time Altitude Azimuth Distance (km) Brightness Sun altitude
Exits shadow 23:07:58 - 128° (SE) 3,000 ? -7.7°
Reaches altitude 10° 23:08:56 10° 122° (ESE) 2,732 ? -7.8°
Maximum altitude 23:13:18 20° 78° (ENE) 2,074 ? -8.1°
Drops below altitude 10° 23:17:41 10° 33° (NNE) 2,726 ? -8.4°
Sets 23:20:49 0° 18° (NNE) 3,670 ? -8.6°
